Location: La Besse
(45.2500°N, 2.3000°E)
Time: 02:24:54
(UTC+00:00)

Daily predictions for brighter satellites

Satellite Brightness Start Highest point End
(mag) Time Altitude Azimuth Time Altitude Azimuth Time Altitude Azimuth
Cosmos 1758 3.4 00:00:02 10° NNW 00:03:41 70° NW 00:03:41 70° NW
Cosmos 1867 3.5 00:05:01 59° SSW 00:06:06 85° SE 00:11:37 10° NE
Cosmos 1461 2.8 00:02:31 10° NW 00:06:31 81° WNW 00:06:31 81° WNW
Cosmos 2221 Rocket 3.4 00:06:47 83° SW 00:06:56 86° W 00:11:22 10° N
Cosmos 1674 Rocket 3.6 00:06:55 64° ESE 00:07:00 64° E 00:11:17 10° NNE
Cosmos 2298 Rocket 4.4 00:07:41 46° SE 00:08:24 49° ESE 00:13:30 10° NNE
Cosmos 1674 3.0 00:10:51 62° NNW 00:10:51 62° NNW 00:14:09 10° N
USA 306 4.1 00:11:52 31° E 00:11:52 31° E 00:14:27 10° ENE
Cosmos 1238 Rocket 3.7 00:10:16 10° N 00:12:06 35° N 00:12:06 35° N
USA 307 4.2 00:15:20 29° E 00:15:20 29° E 00:17:52 10° ENE
ATLAS CENTAUR R/B 2.7 00:10:18 10° NW 00:13:59 34° W 00:13:59 34° W
SL-16 R/B 4.2 00:16:08 13° ESE 00:17:45 14° E 00:20:41 10° ENE
Cosmos 2322 Rocket 4.5 00:17:09 10° W 00:20:56 18° NW 00:24:44 10° N
Cosmos 1980 4.0 00:20:38 44° SE 00:21:41 50° ESE 00:27:07 10° NE
Cosmos 2333 Rocket 3.2 00:19:42 25° WSW 00:22:23 39° NW 00:27:43 10° NNE
Cosmos 1378 Rocket 3.4 00:22:19 80° S 00:22:33 89° E 00:27:01 10° N
Cosmos 2322 4.3 00:20:48 34° WSW 00:22:58 52° WNW 00:28:35 10° NNE
ATLAS 5 CENTAUR R/B 2.9 00:10:30 10° NW 00:23:08 89° SW 00:24:40 45° SE
Cosmos 468 4.4 00:18:05 10° NNW 00:23:21 89° ENE 00:24:27 57° SSE
CZ-4C R/B 3.0 00:16:20 10° NW 00:23:40 74° WSW 00:27:53 33° SSE
Cosmos 1844 Rocket 4.5 00:23:05 10° WNW 00:26:24 16° W 00:26:32 16° W
USA 215 4.1 00:21:17 10° NE 00:27:31 49° NNW 00:33:46 10° W
NOSS 0 Rocket 3.9 00:29:22 48° S 00:31:11 76° ESE 00:37:26 10° NNE
PSLV R/B 4.1 00:30:10 10° N 00:34:23 48° WNW 00:35:00 44° W
USA 32 4.3 00:35:14 45° SE 00:36:36 62° E 00:41:48 10° NNE
Meteor 2-10 Rocket 4.2 00:33:18 10° N 00:38:53 54° ENE 00:41:17 31° SE
Cosmos 1975 Rocket 4.2 00:39:39 31° ESE 00:40:32 35° E 00:44:35 10° NNE
Cosmos 2151 Rocket 4.2 00:36:44 10° NNW 00:40:51 40° W 00:40:52 40° W
Cosmos 1745 Rocket 4.0 00:36:28 10° NNW 00:42:40 70° W 00:44:35 45° SSW
ADEOS Rocket 3.9 00:42:18 27° WSW 00:43:13 29° W 00:48:16 10° NW
Cosmos 839 Rocket 4.2 00:37:36 10° NW 00:44:01 88° ENE 00:49:12 22° SSE
USA 308 2.9 00:44:46 62° ESE 00:44:46 62° ESE 00:48:38 10° ENE
Okean 2 Rocket 4.1 00:41:05 10° NNW 00:45:08 33° W 00:45:13 33° W
Cosmos 2219 Rocket 3.4 00:42:56 22° WSW 00:45:43 34° NW 00:50:47 10° N
Cosmos 1025 Rocket 4.2 00:47:03 29° ESE 00:48:00 32° E 00:51:52 10° NNE
Meteor 2-12 Rocket 4.3 00:44:12 10° N 00:50:18 84° W 00:52:27 43° S
Meteor 1-16 Rocket 4.5 00:44:40 10° NNW 00:50:29 59° W 00:52:02 45° SSW
GP-B 3.1 00:52:50 10° N 00:57:18 76° E 00:58:07 57° SSE
Meteor 2-5 Rocket 4.4 00:55:38 30° SSE 00:58:02 47° E 01:03:27 10° NNE
Lacrosse 5 2.7 00:58:31 34° SE 00:59:01 34° SE 01:03:37 10° ENE
CZ-2D R/B 3.0 00:55:19 10° NNE 01:00:21 39° E 01:02:28 28° SE
Cosmos 1300 2.5 00:57:41 10° NNW 01:01:27 77° W 01:01:27 77° W
SL-14 R/B 3.6 01:02:27 51° W 01:02:33 51° WNW 01:06:20 10° N
USA 267 3.7 01:02:14 37° SSW 01:03:07 39° SW 01:09:11 10° WNW
Cosmos 371 Rocket 3.6 01:06:03 43° WSW 01:07:18 56° WNW 01:12:06 10° NNE
Cosmos 2150 Rocket 4.3 01:06:08 40° WSW 01:07:42 56° WNW 01:12:48 10° NNE
USA 305 2.9 01:07:08 55° W 01:07:57 75° NNW 01:12:08 10° NE
NOSS 2-2 (C) 4.4 01:04:12 10° NW 01:09:24 60° SW 01:12:46 30° S
USA 229 DEB 4.0 01:03:43 10° NW 01:10:58 58° WSW 01:15:06 29° S
USA 229 4.0 01:03:49 10° NW 01:11:03 59° WSW 01:15:14 28° S
Cosmos 2237 Rocket 2.3 01:11:28 40° SW 01:13:33 71° WNW 01:19:16 10° NNE
COSMOS 2428 4.1 01:12:17 18° W 01:15:29 30° NW 01:20:26 10° N
Cosmos 405 Rocket 4.4 01:18:03 21° WNW 01:18:20 21° WNW 01:21:16 10° NNW
Cosmos 304 Rocket 3.8 01:17:17 47° SW 01:18:35 70° WNW 01:23:25 10° NNE
Cosmos 1437 Rocket 4.2 01:16:44 10° NW 01:19:16 23° WNW 01:19:16 23° WNW
SL-16 R/B 3.0 01:14:42 15° SE 01:19:48 61° ENE 01:25:57 10° N
Lacrosse 5 rocket 2.5 01:21:54 27° SE 01:21:55 27° SE 01:25:20 10° ENE
Cosmos 1125 Rocket 4.3 01:20:00 30° WSW 01:21:56 41° WNW 01:26:52 10° N
Okean 1 Rocket 4.2 01:20:01 10° NNW 01:23:49 29° W 01:24:05 28° W
SME Rocket 3.0 01:24:34 51° S 01:25:29 71° WSW 01:30:25 10° NNW
Cosmos 1953 3.8 01:23:21 10° NW 01:26:26 24° W 01:26:26 24° W
Cosmos 2074 Rocket 4.3 01:22:53 10° N 01:29:10 64° E 01:33:59 18° SSE
Resurs 1-4 Rocket 2.2 01:24:22 10° NNE 01:29:38 73° ESE 01:31:56 34° S
Cosmos 2297 4.3 01:27:52 10° NNW 01:33:34 57° ENE 01:39:11 10° SE
Cosmos 1943 Rocket 2.4 01:27:56 10° NNW 01:33:38 71° ENE 01:39:16 10° SSE
MOZ.5/SAFIR/RUBIN 5/SL-8 4.2 01:33:59 40° SW 01:34:59 46° W 01:39:35 10° NNW
Cosmos 1709 Rocket 4.4 01:31:18 10° NNW 01:37:01 43° W 01:39:18 31° SW
Cosmos 2315 Rocket 4.4 01:35:34 31° SW 01:38:24 51° WNW 01:44:38 10° N
Cosmos 2184 Rocket 4.1 01:37:46 10° N 01:44:04 79° E 01:48:45 19° SSE
Cosmos 2278 Rocket 3.1 01:39:45 10° NW 01:44:31 28° WSW 01:45:23 27° WSW
ADEOS II 2.6 01:40:23 10° NNE 01:45:33 53° E 01:48:40 23° SSE
IDEFIX/ARIANE 42P 3.4 01:41:21 10° NNE 01:46:25 45° E 01:49:52 19° SSE
USA 306 3.8 01:47:34 20° W 01:50:04 44° NNW 01:54:06 10° NE
Cosmos 2084 Rocket 3.2 01:49:15 42° WSW 01:50:21 67° NW 01:54:09 10° NE
USA 307 3.7 01:51:04 21° W 01:53:33 47° NNW 01:57:36 10° NE
Thor Agena Rocket 4.4 01:48:48 10° N 01:53:41 40° WNW 01:56:09 25° WSW
ERBS 3.5 01:54:54 25° WNW 01:55:55 32° NNW 01:58:43 10° NE
NPP 3.6 01:52:14 10° NNE 01:57:39 81° WNW 02:00:36 28° SSW
Cosmos 2369 Rocket 3.3 01:53:26 10° NNW 01:58:49 45° ENE 02:04:09 10° SE
SL-16 R/B 2.2 01:58:00 29° SSW 02:01:02 86° WNW 02:06:45 10° NNE
Cosmos 1455 Rocket 4.0 01:58:11 10° NNW 02:02:10 32° W 02:03:15 28° WSW
CZ-4 R/B 4.0 01:58:01 10° N 02:02:35 56° WNW 02:04:41 30° SW
Cosmos 614 Rocket 4.2 01:57:25 10° NNW 02:02:38 73° ENE 02:07:50 10° SSE
Cosmos 2228 4.2 01:58:38 10° N 02:02:49 42° ENE 02:06:56 10° SSE
EO 1 Del DPAF 3.5 02:00:14 10° NNE 02:03:42 53° E 02:05:16 28° SSE
Meteor 1-28 Rocket 3.2 02:03:36 22° SSE 02:05:56 78° ENE 02:09:40 10° N
COSMOS 2455 3.1 02:04:48 23° S 02:08:32 63° ESE 02:14:29 10° NE
Cosmos 1536 Rocket 3.5 02:08:02 27° S 02:10:28 88° E 02:14:52 10° N
CZ-4C R/B 4.4 02:06:35 10° WNW 02:11:34 18° WSW 02:12:59 18° WSW
Nadezhda 1 Rocket 4.0 02:15:05 19° S 02:19:51 85° W 02:26:12 10° N
Meteor 1-24 Rocket 4.2 02:17:04 23° SW 02:20:09 43° WNW 02:25:22 10° N
UNK 4.0 02:19:09 24° SSW 02:21:35 47° W 02:26:03 10° NNW
MSX 4.0 02:17:47 10° NNE 02:23:35 73° ESE 02:28:25 15° S
USA 308 4.2 02:20:31 10° W 02:24:20 35° NNW 02:28:12 10° NE
Cosmos 1025 Rocket 4.5 02:23:55 18° WSW 02:25:39 23° WNW 02:29:09 10° NNW
MOS 1 Rocket 3.3 02:23:22 24° SSW 02:25:40 47° W 02:29:51 10° NNW
Cosmos 1455 2.7 02:22:33 10° NNW 02:26:01 38° W 02:27:23 27° SW
Cosmos 1271 Rocket 2.6 02:26:05 10° NNW 02:29:53 69° W 02:32:44 17° S
Cosmos 1606 Rocket 4.1 02:29:39 10° N 02:34:03 60° E 02:38:22 10° SSE
ALOS 4.2 02:33:50 10° NE 02:37:41 25° E 02:41:31 10° SSE
CZ-2C R/B 4.3 02:35:31 10° NE 02:39:52 27° E 02:44:07 10° SSE
CZ-2D R/B 3.2 02:35:35 10° N 02:40:15 31° WNW 02:43:47 15° WSW
Lacrosse 5 2.4 02:37:42 15° WSW 02:41:51 53° NNW 02:46:52 10° NE
Helios 1B rocket 3.4 02:40:46 10° NNE 02:44:39 43° E 02:48:31 10° S
Cosmos 2341 Rocket 4.2 02:40:28 10° N 02:46:54 82° E 02:53:18 10° S
Cosmos 2154 Rocket 4.4 02:44:12 10° NNW 02:50:13 46° W 02:56:01 11° SSW
BREEZE-M DEB (TANK) 3.3 02:47:13 16° SW 02:50:40 41° SSE 02:53:05 10° E
Meteor 2-1 Rocket 4.3 02:45:37 10° N 02:51:26 87° E 02:57:04 10° S
Cosmos 407 Rocket 3.9 02:47:15 10° NNW 02:52:35 69° ENE 02:57:49 10° SSE
SL-8 Rocket 4.2 02:47:16 10° N 02:53:38 77° E 02:59:57 10° SSE
Cosmos 1943 3.4 02:50:42 12° SSW 02:56:02 72° ESE 03:01:44 10° NNE
Cosmos 1328 3.9 02:52:13 10° S 02:56:08 80° E 03:00:07 10° N
Helios 1A 3.8 02:53:26 15° SSW 02:56:22 33° W 03:00:12 10° NNW
Cosmos 2237 Rocket 4.4 02:55:25 10° WNW 02:58:42 15° NW 03:02:00 10° N
Genesis I 4.0 02:55:54 10° NNW 02:59:56 59° NE 03:03:52 10° SE
Lacrosse 5 rocket 2.0 02:57:25 12° WSW 03:00:46 45° NNW 03:04:46 10° NE
Cosmos 1140 Rocket 3.5 02:58:15 10° NNW 03:03:33 88° ENE 03:08:47 10° SSE
SL-16 R/B 3.7 02:59:47 13° SW 03:03:49 24° W 03:08:46 10° NW
Lacrosse 4 Rocket 3.8 03:05:28 10° SSE 03:08:26 18° ESE 03:11:22 10° ENE
Resurs 1-4 Rocket 3.9 03:05:25 10° NNW 03:08:52 18° WNW 03:12:19 10° W
SeaSat 1 4.2 03:05:32 10° NE 03:09:45 28° ESE 03:13:56 10° SSE
Cosmos 1892 Rocket 3.6 03:05:26 10° S 03:09:53 87° E 03:14:24 10° N
Cosmos 1726 Rocket 3.6 03:09:14 10° NNW 03:13:38 67° W 03:17:58 10° S
Cosmos 1703 4.4 03:11:07 12° SW 03:14:04 28° WNW 03:17:30 10° NNW
Cosmos 1943 Rocket 3.6 03:12:58 10° WNW 03:16:44 18° W 03:20:30 10° SW
FENGYUN 3A 3.9 03:12:24 10° NNE 03:17:48 73° ESE 03:23:10 10° S
Cosmos 2263 4.2 03:12:16 10° NNW 03:17:53 63° WSW 03:23:31 10° S
NOSS 3-3 (A) 3.9 03:13:34 11° SW 03:19:06 84° NW 03:25:38 10° NE
NOSS 3-3 (C) 3.9 03:13:40 11° SW 03:19:12 85° NW 03:25:44 10° NE
Cosmos 1825 3.9 03:21:23 10° SSE 03:24:45 33° E 03:28:07 10° NNE
ADEOS II 3.5 03:20:47 10° N 03:24:51 23° WNW 03:28:55 10° WSW
IDEFIX/ARIANE 42P 3.8 03:21:23 10° N 03:25:45 27° WNW 03:30:06 10° WSW
SL-24 DEB 4.3 03:21:32 10° S 03:26:14 69° W 03:30:57 10° N
ARIANE 5 R/B 3.0 03:23:00 10° NNE 03:28:02 61° ESE 03:32:59 10° S
Cosmos 1624 Rocket 4.3 03:23:08 10° SSW 03:28:27 75° ESE 03:33:45 10° NNE
CBERS-1 4.3 03:25:54 10° N 03:30:55 57° WNW 03:35:55 10° SSW
Cosmos 2218 Rocket 4.1 03:29:15 10° NNW 03:35:24 63° W 03:41:37 10° S
MOS 1-B Rocket 4.1 03:31:56 10° S 03:37:22 50° W 03:42:57 10° NNW
DEBRIS 3.2 03:34:00 10° WNW 03:42:05 89° SW 03:44:54 10° ESE
